Location: Zeppara
(39.7833°N, 8.8333°E)
Time: 16:12:24
(UTC+00:00)

Daily predictions for brighter satellites

Satellite Brightness Start Highest point End
(mag) Time Altitude Azimuth Time Altitude Azimuth Time Altitude Azimuth
CZ-4B R/B 2.8 16:26:47 10° SSE 16:30:46 83° ENE 16:34:35 10° N
CZ-2C R/B 3.8 16:28:39 10° NE 16:32:36 22° E 16:36:31 10° SE
SL-24 R/B - RUBIN 2 3.5 16:28:58 10° NNW 16:33:25 71° ENE 16:37:42 10° SE
Meteor 1-25 Rocket 4.5 16:28:03 10° NNW 16:33:39 78° W 16:39:17 10° S
Cosmos 1500 3.1 16:33:13 10° N 16:36:56 63° E 16:40:36 10° SSE
Cosmos 44 Rocket 4.1 16:33:46 10° NNW 16:38:03 29° NE 16:42:13 10° ESE
COSMOS 2406 4.4 16:33:46 10° SW 16:39:11 43° WNW 16:44:39 10° N
Cosmos 1814 Rocket 4.0 16:34:46 10° SSW 16:39:59 81° ESE 16:45:11 10° NNE
Cosmos 921 Rocket 3.7 16:37:34 10° SSE 16:41:18 32° E 16:45:06 10° NE
Cosmos 1570 Rocket 4.0 16:41:37 10° SSW 16:46:51 80° ESE 16:52:05 10° NNE
CZ-4B R/B 3.8 16:46:49 10° SE 16:51:30 31° ENE 16:56:08 10° N
CZ-2D R/B 3.6 16:50:11 10° SE 16:53:47 41° ENE 16:57:23 10° N
MOS 1-B Rocket 4.4 16:48:01 10° NNE 16:54:07 55° ESE 17:01:11 10° S
Cosmos 1939 Rocket 3.1 16:52:18 10° S 16:56:24 76° WSW 17:00:28 10° NNW
ATLAS CENTAUR R/B 4.3 16:47:40 10° WSW 16:56:49 34° NW 17:01:04 10° NNE
USA 267 3.6 16:50:56 10° NE 16:57:24 65° NW 17:03:50 10° WSW
Cosmos 1151 Rocket 3.0 16:54:59 10° S 16:59:18 87° E 17:03:41 10° N
Cosmos 1782 4.2 16:57:44 10° SSW 17:01:30 40° W 17:05:17 10° N
APEX 3.2 16:58:06 10° S 17:01:59 50° ESE 17:04:23 17° NE
Meteor 2-6 Rocket 4.2 16:56:34 10° S 17:02:14 64° E 17:07:46 10° NNE
COSMO-SKYMED 1 3.1 16:59:48 10° NNE 17:03:51 37° E 17:07:53 10° SSE
Cosmos 1633 Rocket 3.0 16:59:35 10° N 17:03:58 64° E 17:08:18 10° SSE
Cosmos 1666 2.5 17:01:55 10° N 17:05:39 77° E 17:09:21 10° S
PAYLOAD B 4.2 17:00:47 10° SSE 17:06:18 63° ENE 17:11:49 10° N
Landsat 5 4.4 17:05:03 17° NE 17:07:03 25° E 17:10:19 10° SSE
Cosmos 2360 Rocket 3.6 17:04:13 10° N 17:07:48 17° NE 17:08:17 17° ENE
ISS -3.1 17:04:54 10° WNW 17:08:14 58° SW 17:11:34 10° SE
Cosmos 1818 3.6 17:08:23 10° NNW 17:13:49 60° NE 17:19:10 10° SE
Cosmos 2279 Rocket 4.1 17:08:59 10° S 17:15:12 81° W 17:21:26 10° N
CZ-2C R/B 2.2 17:12:27 10° WSW 17:16:32 41° S 17:19:13 19° ESE
Meteor 2-15 4.4 17:11:31 10° S 17:17:33 66° E 17:23:35 10° NNE
ATLAS 5 CENTAUR R/B 3.2 17:15:16 10° NNW 17:19:18 20° NNE 17:19:39 20° NNE
SL-08 RB Rocket 4.4 17:18:57 10° SE 17:23:01 31° ENE 17:27:03 10° N
USA 307 4.3 17:19:47 10° NNW 17:23:05 21° NNE 17:23:33 21° NNE
Cosmos 2266 Rocket 4.1 17:17:00 10° N 17:23:15 53° E 17:29:29 10° SSE
CZ-4C R/B 3.2 17:17:33 10° NW 17:25:07 82° WSW 17:33:45 10° SSE
Lacrosse 5 rocket 1.3 17:22:48 10° NW 17:26:44 57° NE 17:28:57 25° ESE
SKYMED 3 4.5 17:23:42 10° NNE 17:28:03 72° ESE 17:32:22 10° S
USA 234 3.3 17:22:35 11° ESE 17:28:47 59° NE 17:35:11 10° NW
Cosmos 1328 Rocket 4.1 17:25:01 10° SSW 17:29:23 62° W 17:33:48 10° N
Tiangong 2.1 17:26:52 10° SW 17:29:43 31° SSE 17:30:10 30° SE
Cosmos 2322 Rocket 2.6 17:25:39 10° N 17:30:58 39° ENE 17:35:03 16° ESE
Cosmos 1933 Rocket 3.8 17:26:55 10° N 17:31:04 43° ENE 17:35:11 10° SSE
Cosmos 2150 Rocket 3.9 17:27:40 10° NNW 17:32:51 63° ENE 17:38:03 10° SSE
Cosmos 1980 Rocket 3.7 17:28:50 10° NW 17:34:02 39° WSW 17:39:11 10° S
Cosmos 1867 3.5 17:30:01 10° SSW 17:35:24 69° ESE 17:38:27 27° NE
NOSS 3-3 (A) 4.0 17:30:18 10° S 17:35:36 50° ESE 17:38:22 29° ENE
NOSS 3-3 (C) 4.0 17:30:24 10° S 17:35:42 50° ESE 17:38:27 29° ENE
H-2A R/B 2.2 17:31:21 10° S 17:36:30 74° WSW 17:41:31 10° NNW
Cosmos 1470 Rocket 3.5 17:32:39 10° N 17:37:09 86° E 17:41:37 10° S
Cosmos 1544 2.9 17:33:34 10° N 17:37:11 66° E 17:40:47 10° SSE
DEBRIS 2.6 17:35:27 10° SW 17:37:45 59° SE 17:38:35 44° E
X-37B 0.7 17:34:55 10° W 17:37:46 54° NNW 17:37:48 54° NNW
Okean O Rocket 1.5 17:33:57 10° SSE 17:38:20 64° ENE 17:42:46 10° N
Cosmos 1125 Rocket 3.4 17:33:50 10° NNW 17:39:05 67° ENE 17:44:20 10° SSE
Meteor 1-10 Rocket 4.3 17:33:35 10° S 17:39:21 85° W 17:45:03 10° N
USA 32 4.0 17:36:16 10° SSE 17:41:23 59° E 17:46:22 11° NNE
Meteor 1-11 Rocket 3.6 17:38:46 10° N 17:44:25 68° E 17:50:11 10° SSE
USA 308 4.1 17:42:18 10° NNW 17:45:21 26° NNE 17:45:21 26° NNE
ARGOS 3.0 17:42:55 10° SSE 17:48:20 83° ENE 17:53:45 10° NNW
Cosmos 2082 Rocket 4.4 17:46:31 10° W 17:50:39 20° NW 17:54:46 10° N
SL-16 R/B 2.1 17:45:58 10° NNW 17:51:40 76° ENE 17:57:19 10° SSE
SKYMED 2 4.0 17:47:47 11° N 17:51:58 61° WNW 17:56:14 10° SSW
deb Chang Zheng 4 3.7 17:49:38 10° S 17:53:55 74° WSW 17:58:14 10° NNW
Cosmos 1241 Rocket 4.4 17:52:27 10° SSW 17:58:52 86° ESE 18:01:58 33° NNE
Feng Yun 1-1 Rocket 4.2 17:57:18 10° SSE 18:03:10 71° ENE 18:09:00 10° N
USA 305 4.2 18:06:24 10° NW 18:08:52 29° NNW 18:08:52 29° NNW
Cosmos 2333 Rocket 4.1 18:06:37 10° N 18:08:05 16° N 18:08:05 16° N
Cosmos 1356 Rocket 4.0 18:07:38 10° NNW 18:11:48 58° W 18:15:59 10° S
CZ-2C R/B 3.7 18:08:12 10° N 18:13:03 42° WNW 18:17:53 10° SW
Aureole 3 Rocket 3.7 18:11:28 10° SSW 18:15:43 67° W 18:21:45 10° N
Cosmos 2219 Rocket 4.4 18:14:40 10° N 18:15:05 12° N 18:15:05 12° N
Spot 2 4.5 18:17:49 10° SSE 18:23:28 73° N 18:28:05 10° NNW
Cosmos 2228 Rocket 4.1 18:19:04 10° S 18:21:40 36° S 18:21:40 36° S
IRAS Rocket 4.4 18:39:35 66° SSW 18:39:35 66° SSW 18:44:19 10° SSW
Cosmos 1833 4.5 18:40:03 10° SSW 18:45:05 64° W 18:45:05 64° W
Cosmos 2360 Rocket 3.2 18:46:47 10° NNW 18:50:08 37° NNW 18:50:08 37° NNW
CZ-2C R/B 3.8 18:51:51 10° WSW 18:53:23 20° WSW 18:53:23 20° WSW
Lacrosse 5 rocket 4.2 19:02:51 10° W 19:04:38 16° WSW 19:04:38 16° WSW
USA 234 4.3 19:10:00 32° SSW 19:11:55 39° SW 19:17:59 10° WNW
Cosmos 2322 Rocket 3.9 19:09:58 10° NW 19:14:50 29° WSW 19:17:09 22° SW
